DELTA 1 DEB, 48087

Orbit data source: Space-Track

DELTA 1 DEB, 48087 is space debris in SSO originally from a launch on Thu, 12 Jun 1975 UTC launched from the Air Force Western Test Range (AFWTR). Debris objects in space refer to the collection of defunct objects orbiting the Earth. Examples of debris include non-operational satellites, rocket bodies, and fragments generated from explosions, collisions, or faulty payload assembly.

Loading next visibility...
Identifier
48087, 1975-052MX
Orbit
SSO
Country
Flag of USUS
Related business
Manufacturer
Unknown
Mission
Spacecraft
Bus & Motor
Unknown
Mass
Unknown
Launch date (UTC)
1975-06-12 (51 years ago)
Launch vehicle
Unknown
Launch site
Air Force Western Test Range (AFWTR)
Object type
Payload
Rocket body
Debris
Shape & HBR
Unknown shape, 0.1 m
Radar Cross Section
Small (<0.1 m²)

Expand to show TLE details & history
Last TLE update: 2 days ago

TLE from 2 days ago
0 DELTA 1 DEB
1 48087U 75052MX  26171.35263051  .00000309  00000-0  60455-3 0  9993
2 48087  99.6825   4.9162 0056209 132.2878 228.3038 13.43563318616010
Epoch: 2026-06-20T08:27Z
TLE epoch observation values (Epoch: 2026-06-20T08:27:47.276Z)
Latitude
0.00008°
Longitude
-30.59928°
Altitude
1,126.894 km
Speed
7.276 km/s
True Right ascension
00h 19m 39s
True Declination
0° 00' 00"
Sunlit
Object was in daylight at epoch
Visualization orbit readout
Latitude
Unknown
Longitude
Unknown
Altitude
Unknown
Speed
Unknown
Apparent Right ascension
Unknown
Apparent Declination
Unknown
Sunlit
N/A
Visualization observer readout
Local Sidereal Time
21:38:40
Azimuth
Unknown
Elevation
Unknown
Doppler factor
Unknown
Orbital elements
Apogee altitude
1,135.34 km
Perigee altitude
1,051.347 km
Semi-major axis
7,471.481 km
Eccentricity
0.00562
Inclination
99.6825°
RAAN
4.9162°
Arg. of periapsis
132.2878°
True anomaly
227.8251°
Mean anomaly
228.3038°
Eccentric anomaly
228.06423°
Mean motion
3.36073 °/min
Orbital period
107.12 mins
BSTAR
0.00060455
Loading maneuver chart data...
Computing Atmospheric mass density...
Loading historical data...
Loading historical data...
Loading historical data...
Loading historical data...
Loading historical data...
Loading historical data...
Loading historical data...

Documentation

Showing up to 5 results
|